Regional Weather Roundup
Issued by NWS

Home | Current Version | Previous Version | Text Only | Print | Product List | Glossary Off
Versions: 1 2 3 4 5 6 7 8 9 10 11 12 13 14 15 16 17 18 19 20 21 22 23 24 25 26 27 28 29 30 31 32 33 34 35 36 37 38 39 40 41 42 43 44 45 46 47 48 49 50

000
ASUS43 KLMK 280710
RWRKY
KENTUCKY REGIONAL WEATHER ROUNDUP
NATIONAL WEATHER SERVICE LOUISVILLE KY
200 AM EST WED JAN 28 2015

NOTE "FAIR" INDICATES FEW OR NO CLOUDS BELOW 12,000 FEET
WITH NO SIGNIFICANT WEATHER AND/OR OBSTRUCTIONS TO VISIBILITY.

KYZ001>023-026-027-061>063-070>075-280800-
WESTERN AND SOUTH CENTRAL KENTUCKY

CITY           SKY/WX    TMP DP  RH WIND       PRES   REMARKS
PADUCAH        CLEAR     28  25  88 E3        30.24S
HENDERSON      CLOUDY    32  27  80 NE5       30.27F WCI  27
OWENSBORO      CLOUDY    33  27  79 NE3       30.28S
HOPKINSVILLE   CLOUDY    31  28  89 N6        30.24F WCI  26
BOWLING GREEN  CLOUDY    33  27  78 N3        30.26R
GLASGOW        MOCLDY    29  19  67 NE5       30.25R WCI  24
$$

KYZ024-025-028>034-038-045-046-053-280800-
NORTH CENTRAL KENTUCKY

CITY           SKY/WX    TMP DP  RH WIND       PRES   REMARKS
LOUISVILLE/SDF CLEAR     24  13  62 E6        30.28R WCI  17
LOUISVILLE/LOU CLEAR     23  13  65 NE5       30.28R WCI  17
FORT KNOX      CLEAR     23  14  68 NE2       30.25R
$$

KYZ035>037-039>044-047>052-055>060-089>105-280800-
NORTHEAST KENTUCKY

CITY           SKY/WX    TMP DP  RH WIND       PRES   REMARKS
LEXINGTON      CLEAR     18  11  74 CALM      30.25R
COVINGTON      CLEAR     17  11  77 CALM      30.25R
FRANKFORT      CLEAR     17  11  77 CALM      30.25R
$$

KYZ054-064>069-076>088-106>120-280800-
SOUTHEAST KENTUCKY

CITY           SKY/WX    TMP DP  RH WIND       PRES   REMARKS
JACKSON        CLEAR     18  11  74 CALM      30.20R
LONDON         CLEAR     22  12  65 N3        30.21R
SOMERSET       CLEAR     23  14  68 CALM      30.25R
MIDDLESBORO    CLEAR     24  16  70 CALM      30.21R
MONTICELLO     SUNNY     23  16  75 N5        30.26R WCI  17
$$



USA.gov is the U.S. government's official web portal to all federal, state and local government web resources and services.